Погода в Котельве

Украина / Полтавская область     50°03′43″N   34°45′53″E
темп.,
°C
ветер,
м/с
пор.,
м/с
влажн.,
%
обл.,
%
осадки,
мм/ч
давл.,
гПа
погр.,
м
12 апреля, пн
пн1200:00+8ссв3864100 0.0 1026175
03:00+8ссв51061100 0.0 1025369
06:00+8св51069100 0.0 1023417
09:00+10всв5777100 0.0 1022395
12:00+14в5768100 0.0 1021874
15:00+18вюв4750100 0.0 10201398
18:00+16юв2256100 0.0 102022
21:00+14юв226484 0.0 102011
13 апреля, вт
вт1300:00+12в487535 0.0 1020142
03:00+12юв4784100 0.0 1020247
06:00+11вюв3692100 0.0 1020226
09:00+12ююв4690100 0.0 1021484
12:00+13ююв4579100 0.0 1021662
15:00+16ю456496 0.2 10201238
18:00+14юв3473100 0.1 1020107
21:00+12ююв3680100 0.1 1020204
14 апреля, ср
ср1400:00+11юв3680100 0.0 1020156
03:00+11юв348293 0.0 101990
06:00+10юв2484100 0.0 1018105
09:00+11ююв2486100 0.3 1018224
12:00+15ю4463100 0.1 10181178
15:00+16ююв4550100 0.3 10171704
18:00+15ю2458100 0.0 1016194
21:00+13ююз2267100 0.1 101743
15 апреля, чт
чт1500:00+12з1168100 0.0 101610
03:00+11всв2373100 0.1 101660
06:00+11в2277100 0.3 101534
09:00+10з1188100 1.4 101684
12:00+13с3471100 0.3 1014521
15:00+16юв125680 0.8 10131131
18:00+16ю125321 0.1 10121308
21:00+12ююз1175100 0.5 101214
16 апреля, пт
пт1600:00+11юз3584100 0.1 1012136
03:00+10юз2386100 0.1 101182
06:00+10ю2489100 0.1 1011157
09:00+12ю457332 0.1 1012675
12:00+14ю565948 0.1 10121254
15:00+13ю656476 0.6 1012876
18:00+13ююв346195 0.0 1012933
21:00+10ю2479100 0.1 1013179